Wind_Speed
38 36 35 34 34 33 32 32 32 33 33 34 35 37 39 41 44 47 50 53 56 59 62 65 68 71 74 78 81 85 89 93 97 101 105 109 113 117 121 125 130 134 137 141 145 148 151 154 158 162 165 168 170 172 172 171 171 171 171 171 172 172 172 173 173 174 174 174 174 173 173 172 171 170 169 168 166 164 162 159 156 154 152 149 146 144
38 36 35 34 33 32 32 32 32 32 32 33 34 36 38 40 43 45 48 51 55 58 61 64 67 70 73 76 80 83 87 91 95 99 104 108 111 115 119 123 127 131 135 139 142 146 149 153 156 160 164 167 169 171 171 170 170 170 171 171 171 171 171 172 172 172 173 173 173 173 172 171 170 169 169 168 166 164 162 160 158 155 153 150 148 145
39 37 35 33 32 32 31 31 31 31 32 32 33 35 37 39 41 44 47 50 53 56 60 63 66 69 72 75 78 81 85 89 93 97 102 106 110 113 117 121 125 129 133 136 140 144 147 151 154 158 162 165 168 169 170 170 170 170 171 171 171 171 171 171 171 171 172 172 172 172 171 171 170 169 168 167 166 164 163 161 158 156 154 152 149 147
40 38 36 34 32 31 31 31 31 31 31 32 33 34 36 38 40 43 46 49 52 55 58 61 65 68 71 74 77 80 84 87 91 95 99 103 108 111 115 119 123 126 130 134 138 142 146 149 153 156 159 163 166 168 168 169 170 170 171 171 171 171 171 171 171 171 171 172 172 171 171 170 169 168 167 166 165 164 163 161 159 157 155 153 151 148
40 38 36 34 32 31 30 30 30 30 30 31 32 33 35 37 39 42 44 47 50 53 57 60 63 66 69 73 76 79 82 85 89 93 97 101 105 109 113 117 120 124 128 132 136 140 144 147 151 154 157 160 163 165 167 168 169 170 171 170 170 170 170 170 170 171 171 171 171 171 170 170 169 168 167 166 165 164 163 161 160 158 156 154 152 150
38 37 36 34 33 31 30 30 29 30 30 30 31 32 34 36 38 41 43 46 49 52 55 59 62 65 68 71 74 77 80 84 87 91 95 100 103 107 111 115 118 122 125 129 133 138 142 145 148 151 154 157 160 163 165 167 169 169 170 170 170 170 170 170 170 170 171 171 170 170 170 169 169 168 167 166 165 164 162 161 160 159 157 155 153 151
36 36 35 34 33 31 30 29 29 29 29 30 31 32 33 35 37 39 42 45 48 51 54 57 60 63 67 70 73 76 79 82 86 89 94 98 102 105 109 113 116 120 123 127 131 135 139 143 146 149 151 154 157 160 164 166 168 169 169 169 169 169 169 169 170 170 170 170 170 170 169 169 168 167 166 165 164 163 162 161 160 159 158 156 154 152
36 34 33 33 32 31 30 29 29 28 29 29 30 31 32 34 36 38 41 44 46 49 52 56 59 62 65 68 71 74 77 81 84 88 92 96 100 103 107 111 114 117 121 124 128 132 136 140 142 145 148 151 154 158 162 165 167 168 168 168 169 169 169 169 169 169 169 169 169 169 168 168 168 167 166 165 164 163 162 161 160 159 158 157 155 153
37 34 32 32 31 30 30 29 28 28 28 29 29 31 32 33 35 37 40 42 45 48 51 54 57 61 64 67 70 73 76 79 82 86 90 94 98 102 105 109 112 115 118 122 126 129 133 136 139 142 145 149 152 156 160 163 166 167 167 168 168 168 168 168 168 168 168 168 168 168 168 167 167 166 166 165 164 163 162 161 160 159 158 157 156 154
38 35 32 31 30 30 29 28 28 28 28 28 29 30 31 33 34 36 39 41 44 47 50 53 56 59 63 66 69 72 74 78 81 84 88 92 96 99 103 107 110 113 116 119 123 126 130 133 137 140 144 147 151 155 159 162 164 166 166 167 167 167 167 167 167 167 167 167 167 167 167 167 166 166 165 165 164 163 162 161 160 159 158 157 156 155
40 36 33 31 29 29 28 28 28 27 27 28 28 29 31 32 34 35 38 40 43 46 49 52 55 58 61 65 68 70 73 76 79 83 86 90 94 97 101 104 108 111 114 117 120 124 127 131 135 139 142 146 150 154 158 161 163 165 166 166 166 166 166 166 165 165 165 165 166 166 166 166 166 165 165 164 164 163 162 161 160 159 158 157 156 155
40 37 34 31 29 28 28 27 27 27 27 27 28 29 30 32 33 35 37 39 42 45 48 51 54 57 60 63 66 69 72 75 78 81 85 88 92 95 99 102 105 108 111 115 118 121 125 129 133 137 141 145 149 153 157 160 163 164 165 166 166 165 165 165 165 165 165 165 165 165 165 165 165 165 164 164 164 163 162 161 160 159 158 157 156 155
39 37 34 32 29 28 27 27 26 26 26 27 27 28 30 31 32 34 36 38 41 44 47 50 53 56 59 62 65 68 71 74 77 80 83 87 90 93 97 100 103 106 110 113 116 120 124 128 132 136 140 144 148 152 156 159 162 164 165 165 165 165 165 165 165 164 164 164 164 164 164 164 164 164 164 164 163 163 162 161 161 160 159 158 156 155
36 35 33 31 29 28 27 26 26 26 26 26 27 28 29 30 32 33 35 38 40 43 46 49 52 55 58 61 64 67 70 73 76 78 82 85 88 91 95 98 101 105 108 111 115 119 123 127 130 134 138 142 146 151 154 158 161 163 164 165 165 165 165 165 165 165 164 164 164 164 163 164 164 164 164 163 163 162 162 161 161 160 159 158 157 155
34 33 31 30 28 27 26 25 25 25 25 26 26 27 29 30 31 33 35 37 39 42 45 48 51 54 57 60 63 66 69 72 74 77 80 83 86 90 93 96 100 103 106 110 113 117 121 125 129 133 137 141 145 149 153 157 159 162 163 164 164 165 165 165 165 165 164 164 164 164 163 163 163 163 163 163 163 162 162 161 161 160 159 158 157 155
33 32 30 29 27 26 25 25 24 24 24 25 26 27 28 29 31 32 34 36 39 41 44 47 50 53 56 59 62 65 68 71 73 76 79 82 85 88 91 95 98 101 105 108 112 116 119 123 128 132 135 139 143 148 152 156 159 161 163 164 164 165 165 165 165 164 164 164 164 164 163 163 163 163 162 162 162 162 162 161 161 160 159 158 157 155
33 31 29 28 26 25 24 24 24 24 24 24 25 26 27 29 30 32 34 36 38 40 43 46 48 51 55 58 61 64 67 70 72 75 78 81 84 87 90 93 97 100 103 107 110 114 118 122 126 130 134 138 142 146 150 154 158 160 162 163 164 164 164 164 164 164 164 164 164 164 163 163 163 162 162 162 162 162 161 161 160 159 159 158 157 155
33 31 29 27 25 24 23 23 23 23 23 23 24 25 26 28 30 31 33 35 37 39 42 45 47 50 53 57 60 63 66 68 71 74 77 79 82 85 89 92 95 99 102 106 109 113 116 120 124 128 132 136 140 144 149 153 157 160 162 163 164 164 164 164 164 164 164 164 164 163 163 163 162 162 162 161 161 161 161 160 160 159 159 158 157 156
33 30 28 26 25 23 22 22 22 22 22 23 23 24 26 27 29 30 32 34 36 38 41 43 46 49 52 56 59 62 65 67 70 73 76 78 81 84 88 91 94 98 101 105 108 111 115 119 123 126 130 134 138 143 147 152 156 159 161 163 164 164 164 164 163 163 163 163 163 163 163 162 162 162 161 161 161 160 160 160 160 159 159 158 157 156
33 30 28 26 24 23 22 21 21 21 21 22 23 24 25 26 28 30 32 33 36 38 40 42 45 48 51 55 58 61 64 66 69 72 75 77 80 84 87 90 93 97 100 103 107 110 114 117 121 125 128 132 137 141 146 150 154 158 160 162 163 163 164 163 163 163 163 163 163 163 162 162 161 161 161 160 160 160 160 159 159 159 158 158 157 156
33 30 28 25 24 22 21 20 20 20 21 21 22 23 24 25 27 29 31 33 35 37 39 42 45 48 51 54 57 60 63 66 68 71 74 76 80 83 86 89 92 96 99 102 105 109 112 116 119 123 127 131 135 139 144 149 153 157 159 161 162 163 163 163 163 163 163 163 163 162 162 161 161 160 160 159 159 159 159 159 159 158 158 157 157 156
33 30 28 25 23 22 20 20 19 20 20 20 21 22 23 25 26 28 30 32 34 37 39 42 44 47 50 53 56 59 62 65 67 70 73 76 79 82 85 88 91 95 98 101 104 108 111 115 118 122 125 129 133 138 142 147 152 155 159 161 162 163 163 163 163 163 163 163 162 162 161 161 160 159 159 159 158 158 158 158 158 158 158 157 157 156
33 30 28 25 23 21 20 19 19 19 19 20 20 21 23 24 26 27 29 32 34 36 39 41 44 47 50 52 55 58 61 64 66 69 72 75 78 81 84 87 90 94 97 100 103 107 110 114 117 120 124 128 132 136 141 146 150 154 158 160 162 162 163 163 163 163 163 163 162 162 161 160 160 159 159 158 158 158 158 158 158 157 157 157 156 156
32 30 28 25 23 21 19 18 18 18 18 19 20 21 22 23 25 27 29 31 33 36 38 40 43 46 49 52 54 57 60 63 66 68 71 74 77 80 83 86 89 92 96 99 102 106 109 113 116 119 123 126 130 135 139 144 149 153 157 159 161 162 162 163 163 163 163 162 162 162 161 160 160 159 158 158 158 157 157 157 157 157 157 156 156 155
32 30 28 25 23 21 19 18 17 17 18 18 19 20 21 22 24 26 28 30 33 35 38 40 43 45 48 51 54 56 59 62 64 67 70 73 76 79 82 85 88 91 94 98 101 105 108 112 115 118 121 125 129 133 138 143 147 152 156 158 160 162 162 163 163 163 163 162 162 162 161 160 160 159 158 158 157 157 157 157 157 157 156 156 156 155
32 30 27 25 23 21 19 18 17 17 17 18 18 19 20 22 23 25 27 30 32 35 37 39 42 45 47 50 53 55 58 61 64 66 69 72 75 78 81 84 87 90 93 97 100 104 108 111 114 117 120 124 127 131 136 141 146 150 154 157 160 161 162 162 162 162 162 162 162 161 161 160 159 159 158 158 157 157 157 157 157 156 156 156 155 155
33 30 28 25 23 21 19 17 16 16 16 17 18 19 20 21 23 25 27 29 32 34 37 39 42 44 47 49 52 54 57 60 63 65 68 71 74 77 80 83 86 89 92 96 100 103 107 110 113 116 119 122 126 130 134 139 144 149 153 156 159 160 161 162 162 162 162 162 161 161 160 160 159 159 158 158 157 157 157 157 156 156 156 155 155 154
33 31 28 26 23 21 19 17 16 16 16 16 17 18 19 21 22 24 26 29 31 33 36 39 41 44 46 49 51 54 56 59 62 64 67 70 73 76 79 82 85 88 91 95 99 102 105 108 111 114 117 121 124 128 133 137 142 147 152 155 158 159 160 161 161 161 161 161 161 161 160 160 159 159 158 158 157 157 157 156 156 156 155 155 154 154
34 31 28 26 23 21 19 17 16 15 15 16 16 18 19 20 22 24 25 28 30 33 35 38 40 43 45 48 50 53 56 58 61 64 66 69 72 75 78 81 84 87 90 94 97 101 104 107 110 113 116 119 122 127 131 136 140 145 150 154 157 158 160 160 161 161 161 161 160 160 160 159 159 158 158 157 157 157 157 156 156 156 155 154 154 154
34 31 29 26 24 21 19 17 15 15 15 15 16 17 18 20 21 23 25 27 29 32 35 37 40 42 44 47 49 52 55 57 60 63 66 68 71 74 77 80 83 86 89 93 96 100 103 106 108 111 114 118 121 125 129 134 138 143 148 152 155 158 159 160 160 160 160 160 160 160 159 159 158 158 158 157 157 157 157 156 156 155 154 154 153 153
35 32 29 26 24 21 19 17 15 14 14 14 15 16 18 19 21 22 24 26 29 31 34 37 39 41 44 46 48 51 54 57 59 62 65 68 70 73 76 79 82 85 88 92 95 99 102 104 107 110 113 116 120 124 128 132 137 142 146 151 154 157 158 159 160 160 160 160 160 160 160 159 159 158 158 157 157 157 156 156 155 155 154 153 153 152
36 33 30 27 24 21 19 17 15 14 14 14 15 16 17 18 20 22 23 26 28 31 33 36 38 40 42 45 47 50 53 56 59 61 64 67 70 72 75 78 81 84 87 90 94 97 100 103 106 109 112 115 119 122 126 130 135 140 145 149 153 156 158 159 160 160 160 160 160 160 159 159 159 158 158 157 157 157 156 155 155 154 153 153 152 152
35 32 30 27 24 21 19 17 15 14 13 13 14 15 16 18 19 21 23 25 27 30 32 35 37 39 42 44 46 49 52 55 58 61 63 66 69 72 74 77 80 83 86 89 93 95 98 102 105 108 111 114 118 121 124 128 133 138 143 148 152 155 157 158 159 160 160 160 160 160 159 159 159 158 158 157 157 156 156 155 154 153 152 152 152 151
34 31 29 26 24 21 19 16 15 13 13 13 14 15 16 17 19 21 22 24 27 29 31 34 36 38 41 43 45 48 51 54 57 60 63 66 68 71 74 76 79 82 85 89 92 94 97 100 103 106 110 113 116 119 123 127 131 136 141 146 151 154 156 158 159 159 160 159 159 159 159 159 158 158 158 157 157 156 155 155 154 153 152 151 151 151
33 30 28 25 23 20 18 16 14 13 12 12 13 14 15 17 18 20 22 24 26 28 30 33 35 37 40 42 45 47 50 53 56 59 62 65 68 70 73 76 78 81 84 87 90 93 97 100 103 105 108 111 114 118 121 125 130 134 139 144 149 152 155 157 158 159 159 159 159 159 159 159 158 158 158 157 157 156 155 154 153 152 151 151 150 150
32 29 27 25 22 20 18 16 14 13 12 12 12 13 15 16 18 20 21 23 25 28 30 32 34 37 39 41 44 47 49 52 55 58 61 64 67 69 72 74 77 80 83 86 89 92 95 98 101 104 107 110 113 116 120 123 127 132 137 142 147 151 154 156 157 158 159 159 159 159 159 158 158 158 157 157 156 156 155 154 153 152 151 150 150 149
32 29 27 24 22 19 17 15 13 12 11 11 12 13 14 16 17 19 21 23 25 27 29 31 33 36 38 41 43 46 48 51 54 57 60 63 65 68 71 73 76 79 82 85 88 91 94 97 100 103 106 109 112 115 118 122 126 130 136 141 145 149 152 155 156 157 158 159 159 159 158 158 158 157 157 156 156 155 154 153 152 151 150 150 149 149
31 29 26 24 21 19 17 15 13 12 11 11 11 12 13 15 17 19 21 23 24 26 28 30 33 35 37 40 43 45 48 50 53 56 59 61 64 67 69 72 75 78 81 84 86 90 93 96 99 102 105 108 110 113 116 120 125 129 134 139 143 147 151 153 155 157 157 158 158 158 158 158 157 157 156 156 155 155 154 153 152 151 150 149 149 149
31 29 26 24 21 19 16 14 13 11 11 10 11 12 13 15 16 18 20 22 24 26 28 30 32 34 37 39 42 44 46 49 52 55 58 60 63 66 68 71 74 77 79 82 85 88 91 95 98 101 104 107 109 112 115 119 123 127 132 136 141 145 149 152 154 156 157 157 157 157 157 157 157 157 156 156 155 154 153 152 152 151 150 149 148 148
31 29 26 24 21 19 16 14 12 11 10 10 10 11 12 14 16 18 20 21 23 25 27 29 31 34 36 38 41 43 45 48 50 53 56 59 62 65 68 70 73 76 78 81 84 87 90 93 96 99 102 105 108 111 114 117 121 125 130 135 140 145 148 151 153 155 156 157 157 157 157 157 157 156 156 155 155 154 153 152 151 150 149 148 148 147
32 29 26 24 21 18 16 14 12 11 10 9 10 11 12 14 15 17 19 21 23 25 27 29 31 33 35 37 39 42 44 47 49 52 55 58 61 64 66 69 72 75 77 80 83 86 89 92 95 98 101 104 106 109 112 116 119 123 127 133 138 143 146 150 152 154 155 156 156 157 157 157 156 156 156 155 154 154 153 152 151 150 149 148 148 147
32 29 26 23 21 18 16 14 12 10 9 9 9 10 11 13 15 17 18 20 22 24 26 28 30 32 34 36 38 40 43 45 48 51 54 57 60 63 65 68 71 74 76 79 82 85 88 91 94 97 100 102 105 108 111 114 117 121 125 130 135 139 144 148 151 153 154 155 156 156 156 156 156 156 155 155 154 153 152 151 151 150 149 148 147 147
31 29 26 24 21 18 16 14 12 10 9 9 9 10 11 12 14 16 18 20 21 23 25 27 29 31 33 35 37 39 42 44 47 50 53 56 59 62 64 67 70 73 75 78 81 84 87 90 93 95 98 101 104 107 110 113 116 119 124 128 133 138 143 147 150 152 153 155 155 155 156 156 156 155 155 154 154 153 152 151 150 149 148 147 147 146
31 29 26 24 21 18 16 14 11 10 9 8 8 9 10 12 14 16 17 19 21 22 24 26 28 30 32 34 36 38 41 43 46 49 52 55 58 61 63 66 69 72 74 77 80 83 86 89 91 94 97 100 103 105 108 111 114 118 122 126 131 136 141 145 148 151 153 154 154 155 155 155 155 155 154 154 153 152 152 151 150 149 148 147 146 146
31 29 26 24 21 18 16 13 11 10 8 8 8 9 10 11 13 15 17 19 20 22 23 25 26 28 30 32 34 37 39 42 45 48 51 54 57 59 62 65 68 71 74 76 79 82 85 88 90 93 95 98 101 104 107 110 113 116 120 124 129 133 138 142 146 149 152 153 154 154 154 154 154 154 154 153 153 152 151 151 150 149 148 147 146 145
31 29 26 24 21 19 16 14 11 9 8 7 7 8 9 11 13 15 17 18 20 21 23 24 25 27 28 30 32 35 38 40 43 46 49 52 55 58 61 64 67 70 72 75 78 81 83 86 89 91 94 97 100 103 106 108 111 115 118 122 126 131 135 140 144 147 150 152 153 154 154 153 153 153 153 153 153 152 151 150 149 148 147 146 146 145
31 29 26 24 21 19 16 14 11 9 8 7 7 7 9 10 12 14 16 18 20 21 23 24 25 26 27 28 30 32 35 38 41 44 48 51 54 57 60 63 65 68 71 74 77 80 82 85 87 90 93 96 99 102 104 107 110 113 116 120 124 129 134 138 142 146 148 150 152 153 153 153 153 153 153 153 152 151 150 149 149 148 147 146 145 144
31 29 27 24 21 19 16 14 12 10 8 7 6 7 8 10 12 14 15 17 19 21 23 24 25 26 27 28 29 31 33 35 38 42 45 48 52 55 58 61 64 67 70 72 75 78 81 84 86 89 92 95 97 100 103 106 109 112 115 118 122 127 131 136 140 144 147 149 150 151 152 152 153 153 153 152 151 151 150 149 148 147 146 145 144 144
31 29 27 24 22 19 17 14 12 10 8 7 6 7 8 9 11 13 15 17 19 20 22 24 26 27 28 29 30 31 33 35 37 40 43 46 49 53 56 59 62 65 68 71 74 77 79 82 85 88 91 93 96 99 101 104 107 110 113 116 120 124 129 133 138 142 145 147 149 150 151 151 152 152 152 152 151 151 150 148 147 147 146 145 144 143
31 29 27 24 22 19 17 15 12 10 9 7 6 6 7 9 11 13 14 16 18 20 22 23 25 27 29 30 32 33 35 36 38 40 43 45 48 51 54 57 60 63 66 69 72 75 78 81 84 87 89 92 95 97 100 103 105 108 111 115 118 122 127 131 136 140 143 146 148 149 150 150 150 150 150 151 151 150 149 148 147 146 145 144 143 142
31 29 26 24 22 20 17 15 13 11 9 7 6 6 7 8 10 12 14 16 17 19 21 22 24 26 28 30 32 34 36 38 40 42 44 46 49 51 54 56 59 62 65 68 70 73 76 80 83 85 88 91 94 96 99 101 104 107 110 113 116 120 124 129 133 138 141 144 146 148 149 149 150 150 150 150 150 149 148 147 147 146 145 144 143 142
Wind_Direction
311 305 300 295 290 284 279 274 268 262 257 251 246 242 238 234 231 228 226 224 222 220 219 218 217 216 216 215 214 214 213 212 212 211 211 211 211 211 211 211 211 211 211 211 211 211 211 210 209 209 209 209 209 210 210 210 210 210 210 210 210 211 211 211 211 211 211 211 211 212 212 212 212 212 212 212 213 213 213 213 214 214 214 215 215 216
312 307 302 296 291 285 280 274 268 263 257 252 247 242 238 234 231 228 226 224 222 220 219 217 217 216 215 214 214 213 213 213 212 211 211 210 210 210 210 210 211 211 211 211 211 211 211 210 209 209 209 209 209 209 210 210 210 210 210 210 210 210 210 210 210 211 211 211 211 211 211 212 212 212 212 212 212 213 213 213 213 214 214 215 215 215
313 309 304 298 292 286 280 275 269 263 258 252 247 242 238 234 231 228 226 224 222 221 219 217 216 215 214 214 213 213 213 212 212 212 211 210 210 210 210 210 210 210 210 211 211 211 210 210 210 209 208 208 208 209 209 209 209 209 210 210 210 210 210 210 210 210 210 211 211 211 211 211 211 212 212 212 212 212 213 213 213 213 214 214 215 215
314 310 305 299 293 287 281 276 270 264 259 253 248 243 238 235 231 228 226 224 222 221 219 217 216 215 214 213 212 212 212 212 212 212 211 210 210 210 209 210 210 210 210 210 210 210 210 210 210 209 209 208 208 208 208 209 209 209 209 209 209 209 209 210 210 210 210 210 210 211 211 211 211 211 211 212 212 212 212 213 213 213 214 214 214 215
314 310 306 301 295 288 282 277 271 265 259 254 248 243 239 235 231 228 226 224 222 221 219 218 216 215 214 213 212 212 211 212 212 212 211 211 210 210 209 209 209 209 210 210 210 210 210 210 210 209 209 208 208 208 208 208 208 209 209 209 209 209 209 209 209 210 210 210 210 210 210 210 211 211 211 211 211 212 212 212 213 213 213 213 214 214
315 310 306 301 296 289 283 277 272 266 260 254 249 243 239 235 231 229 226 224 222 220 219 218 216 215 214 213 212 211 211 211 211 211 211 211 210 209 209 209 209 209 209 209 209 209 210 210 210 209 209 208 208 207 207 208 208 208 209 209 209 209 209 209 209 209 209 209 210 210 210 210 210 210 210 211 211 211 211 212 212 213 213 213 213 214
316 311 306 301 296 291 284 278 272 266 261 255 249 244 239 235 232 229 226 224 222 220 219 218 216 215 214 213 212 211 211 211 211 211 211 211 210 209 209 209 209 209 209 209 209 209 209 209 209 209 209 208 208 207 207 207 208 208 208 209 209 209 209 209 209 209 209 209 209 209 209 210 210 210 210 210 210 210 211 211 211 212 212 213 213 213
317 312 307 301 296 291 285 279 273 267 261 255 250 244 239 235 232 229 226 224 222 220 219 217 216 215 214 213 212 211 210 210 210 211 211 211 210 209 209 209 208 208 208 208 209 209 209 209 209 209 209 208 208 207 207 207 207 208 208 208 208 209 209 209 209 209 209 209 209 209 209 209 209 210 210 210 210 210 210 210 211 211 212 212 213 213
319 314 308 302 296 291 285 280 274 268 262 256 250 245 240 235 232 229 226 224 222 220 218 217 216 215 214 213 212 211 210 210 210 210 210 210 210 209 209 208 208 208 208 208 208 208 209 209 209 209 209 208 207 207 207 207 207 208 208 208 208 208 208 209 209 209 209 209 209 209 209 209 209 209 209 209 209 210 210 210 210 211 211 212 212 212
319 315 310 303 297 291 286 280 274 269 263 257 251 245 240 236 232 229 226 224 222 220 218 217 216 215 214 213 211 210 210 209 209 210 210 210 210 210 209 208 208 208 208 208 208 208 208 208 208 208 208 208 207 207 206 206 207 207 208 208 208 208 208 208 209 209 209 209 209 209 209 209 209 209 209 209 209 209 209 209 210 210 211 211 211 212
319 315 311 305 298 292 286 281 275 269 263 257 251 246 241 236 232 229 226 224 222 220 218 217 215 214 213 212 211 210 210 209 209 209 209 210 210 210 209 208 208 207 207 207 207 207 208 208 208 208 208 207 207 206 206 206 206 207 207 208 208 208 208 208 208 209 209 209 209 209 209 209 209 209 209 209 209 209 209 209 209 210 210 210 211 211
319 316 311 306 299 293 287 281 275 270 264 258 252 246 241 236 232 229 226 223 221 219 218 216 215 214 213 212 211 210 210 209 209 209 209 209 209 209 209 208 208 207 207 207 207 207 207 207 207 207 207 207 206 206 206 206 206 206 207 207 208 208 208 208 208 208 208 209 209 209 209 209 209 208 208 208 209 209 209 209 209 209 210 210 210 211
318 315 311 306 301 294 287 281 276 270 264 258 252 247 241 236 232 229 226 223 221 219 218 216 215 214 213 212 211 210 209 209 208 208 208 209 209 209 209 208 207 207 206 206 206 206 206 207 207 207 207 206 206 206 206 205 206 206 206 207 207 207 208 208 208 208 208 208 208 208 209 209 208 208 208 208 208 208 209 209 209 209 209 209 210 210
317 314 310 306 301 295 288 282 276 270 264 259 253 247 241 237 232 228 225 223 221 219 217 216 215 213 212 212 211 210 209 208 208 208 208 208 208 208 208 208 207 207 206 206 205 205 206 206 206 206 206 206 206 205 205 205 205 206 206 206 207 207 207 207 207 207 208 208 208 208 208 208 208 208 208 208 208 208 208 208 209 209 209 209 209 210
317 313 309 305 300 295 289 282 277 271 265 259 253 247 242 237 232 228 225 223 221 219 217 216 214 213 212 211 211 210 209 208 208 208 208 208 208 208 208 207 207 206 206 205 205 205 205 205 206 206 206 206 205 205 205 205 205 205 206 206 207 207 207 207 207 207 207 207 208 208 208 208 208 208 208 208 208 208 208 208 208 209 209 209 209 209
319 315 311 306 300 295 289 283 277 271 265 259 253 248 242 237 232 228 225 223 221 219 217 216 214 213 212 211 211 210 209 208 207 207 207 207 207 207 207 207 206 206 205 205 205 204 205 205 205 205 205 205 205 205 204 204 205 205 205 206 206 207 207 207 207 207 207 207 207 207 207 208 208 208 208 208 208 208 208 208 208 208 208 209 209 209
321 317 312 307 301 295 289 284 278 272 265 260 254 248 242 237 232 228 225 222 220 219 217 215 214 213 212 211 210 210 209 208 207 207 207 206 206 206 206 206 206 205 205 205 204 204 204 204 204 205 205 205 204 204 204 204 204 204 205 205 206 206 207 207 207 207 207 207 207 207 207 207 207 207 208 208 208 208 208 208 208 208 208 208 208 209
323 319 314 309 303 297 290 284 278 272 266 260 254 248 243 237 232 228 225 222 220 218 217 215 214 213 212 211 210 210 209 208 207 206 206 206 206 206 205 205 205 205 205 204 204 204 204 204 204 204 204 204 204 204 204 203 204 204 204 205 206 206 206 206 207 207 207 207 207 207 207 207 207 207 207 207 207 207 208 208 208 208 208 208 208 208
325 321 317 311 305 298 292 285 279 272 266 260 254 248 243 238 233 228 225 222 220 218 217 215 214 213 212 211 210 210 209 208 207 206 206 205 205 205 205 205 205 204 204 204 203 203 203 203 204 204 204 204 204 203 203 203 203 204 204 205 205 206 206 206 206 206 207 207 207 207 207 207 207 207 207 207 207 207 207 207 207 208 208 208 208 208
326 323 318 313 307 300 293 287 280 273 267 261 254 248 243 238 233 228 225 222 219 218 216 215 214 213 212 211 210 209 209 208 207 206 206 205 205 204 204 204 204 204 204 203 203 203 203 203 203 203 203 203 203 203 203 203 203 203 204 204 205 205 206 206 206 206 206 207 207 207 207 207 207 207 207 207 207 207 207 207 207 207 207 208 208 208
327 324 320 315 309 302 295 288 281 274 267 261 255 249 243 238 232 228 224 221 219 217 215 214 213 212 211 211 210 209 208 207 207 206 205 205 204 204 204 204 203 203 203 203 203 203 203 203 203 203 203 203 203 203 202 202 203 203 203 204 205 205 205 206 206 206 206 206 207 207 207 207 207 207 207 207 207 207 207 207 207 207 207 207 208 208
329 326 322 317 311 304 297 289 282 275 268 262 255 249 243 237 232 228 224 221 218 216 215 214 213 212 211 210 210 209 208 207 207 206 205 204 204 204 204 203 203 203 203 203 202 202 202 202 202 202 203 203 202 202 202 202 202 203 203 204 204 205 205 205 206 206 206 206 206 206 206 206 206 206 206 206 206 206 207 207 207 207 207 207 207 207
330 327 323 319 314 307 299 291 283 276 268 262 255 249 243 237 232 227 224 220 218 216 214 213 212 211 211 210 209 208 208 207 206 206 205 204 204 203 203 203 203 202 202 202 202 202 202 202 202 202 202 202 202 202 202 202 202 202 203 203 204 205 205 205 205 205 206 206 206 206 206 206 206 206 206 206 206 206 206 206 207 207 207 207 207 207
332 329 325 321 316 309 301 293 285 277 269 262 255 249 242 237 232 227 223 220 217 215 214 213 212 211 210 210 209 208 207 207 206 205 205 204 204 203 203 203 202 202 202 202 201 201 201 202 202 202 202 202 202 202 201 201 202 202 202 203 204 204 205 205 205 205 205 206 206 206 206 206 206 206 206 206 206 206 206 206 206 206 206 207 207 207
333 330 327 323 317 311 304 295 286 277 269 262 255 248 242 237 231 227 223 220 217 215 214 212 212 211 210 209 209 208 207 206 206 205 205 204 203 203 203 203 202 202 201 201 201 201 201 201 201 201 201 201 201 201 201 201 201 201 202 203 203 204 204 205 205 205 205 205 206 206 206 206 206 206 206 206 206 206 206 206 206 206 206 206 206 207
335 332 329 324 319 313 306 297 288 279 270 262 255 248 242 236 231 227 222 219 217 215 213 212 211 211 210 209 208 208 207 206 205 205 204 204 203 203 203 202 202 201 201 201 201 201 201 201 201 201 201 201 201 201 201 201 201 201 202 202 203 204 204 205 205 205 205 205 205 205 206 205 205 205 205 205 205 206 206 206 206 206 206 206 206 206
336 334 330 326 321 315 308 299 289 280 271 262 255 248 242 235 231 226 222 219 216 214 213 211 211 210 210 209 208 207 206 206 205 204 204 203 203 203 202 202 202 201 201 201 201 201 201 201 201 201 201 201 201 201 201 201 201 201 201 202 203 203 204 204 205 205 205 205 205 205 205 205 205 205 205 205 205 205 206 206 206 206 206 206 206 206
337 335 331 327 322 317 310 301 291 281 271 262 254 247 241 235 230 226 222 219 216 214 212 211 210 210 209 208 208 207 206 205 205 204 203 203 203 203 202 202 201 201 201 201 201 201 201 201 201 201 201 201 200 200 200 200 200 201 201 202 202 203 204 204 205 205 205 205 205 205 205 205 205 205 205 205 205 205 205 206 206 206 206 206 206 206
338 335 332 329 324 318 311 302 293 283 272 263 254 247 241 235 230 225 222 219 216 214 212 211 210 209 209 208 207 207 206 205 204 204 203 203 203 202 202 202 201 201 201 201 201 201 201 201 201 201 200 200 200 200 200 200 200 200 201 201 202 203 203 204 204 205 205 205 205 205 205 205 205 205 205 205 205 205 205 205 206 205 205 205 205 206
338 336 333 329 325 319 312 304 294 284 273 263 254 246 240 234 229 225 221 218 216 214 212 211 210 209 209 208 207 206 206 205 204 203 203 202 202 202 202 201 201 201 201 201 201 201 201 200 200 200 200 200 200 200 200 200 200 200 200 201 202 202 203 204 204 204 205 205 205 205 205 205 205 205 205 205 205 205 205 205 205 205 205 205 205 205
338 336 334 330 326 320 314 306 296 286 274 263 254 246 239 234 229 224 221 218 215 214 212 211 210 209 208 207 207 206 205 205 204 203 203 202 202 201 201 201 201 201 201 200 200 200 200 200 200 200 200 200 200 200 200 200 200 200 200 201 201 202 203 203 204 204 204 205 205 205 205 205 205 205 205 205 205 205 205 205 205 205 205 205 205 205
338 336 334 330 326 321 314 307 298 287 275 264 254 246 239 233 228 224 220 217 215 214 212 211 210 209 208 207 207 206 206 205 204 203 202 202 201 201 201 201 201 200 200 200 200 200 200 200 200 200 200 200 200 200 200 199 199 200 200 200 201 202 202 203 204 204 204 204 204 205 205 205 205 205 205 205 205 205 205 205 205 205 205 205 205 205
338 335 333 330 326 321 315 308 299 288 276 264 254 245 238 232 227 223 220 217 215 213 212 211 210 208 207 207 206 206 205 205 204 203 202 202 201 201 200 200 200 200 200 200 200 200 200 200 200 200 200 200 200 200 200 199 199 199 199 200 200 201 202 203 203 204 204 204 204 204 204 204 205 205 205 205 205 205 205 205 205 205 205 205 205 205
337 335 333 330 326 321 315 308 299 289 277 265 254 244 237 231 226 222 219 216 214 213 212 210 209 208 207 206 206 205 205 205 204 203 202 202 201 201 200 200 200 200 200 200 200 200 200 200 200 200 200 200 200 200 199 199 199 199 199 200 200 201 202 202 203 204 204 204 204 204 204 204 204 204 205 205 205 205 205 205 205 205 205 205 205 205
337 335 333 330 326 322 316 309 300 290 278 266 255 244 237 230 225 221 218 215 213 212 211 210 209 208 207 206 205 205 205 204 204 203 203 202 201 201 200 200 199 200 200 200 200 200 200 200 200 200 200 200 200 200 199 199 199 199 199 200 200 201 201 202 203 203 204 204 204 204 204 204 204 204 204 205 205 205 205 205 205 205 205 205 205 205
338 336 334 331 327 323 317 310 301 291 280 267 255 245 236 229 224 220 217 214 213 211 210 209 208 207 206 205 205 205 205 204 204 203 203 202 202 201 200 199 199 199 199 200 200 200 200 200 200 200 200 200 200 200 199 199 199 199 199 199 200 200 201 202 202 203 204 204 204 204 204 204 204 204 204 205 205 205 205 205 205 205 205 205 205 205
340 338 336 333 329 324 319 311 303 293 281 268 256 245 236 229 223 219 216 213 212 210 209 208 207 206 206 205 205 204 204 204 204 203 203 202 202 201 200 199 199 199 199 199 199 200 200 200 200 200 200 200 200 200 199 199 199 199 199 199 200 200 201 201 202 203 203 204 204 204 204 204 204 204 204 204 205 205 205 205 205 205 204 204 204 204
341 339 337 335 331 326 320 313 305 294 282 269 256 245 236 228 223 218 215 213 211 209 208 207 207 206 205 205 204 204 204 203 203 203 203 202 202 201 200 199 199 199 199 199 199 199 199 200 200 200 200 200 200 199 199 199 199 199 199 199 199 200 201 201 202 203 203 203 204 204 204 204 204 204 204 204 204 205 205 205 205 204 204 204 204 204
342 341 339 336 333 328 323 316 307 297 284 270 257 246 236 228 222 218 214 212 210 209 207 206 206 205 205 205 204 204 203 203 203 203 203 202 202 201 200 200 199 199 199 199 199 199 199 199 200 200 200 200 200 199 199 199 199 199 199 199 199 200 200 201 202 202 203 203 204 204 204 204 204 204 204 204 204 204 204 204 204 204 204 204 204 204
343 342 340 338 334 330 325 318 310 299 287 272 259 246 236 228 221 217 214 211 209 208 207 206 205 205 205 204 204 203 203 203 203 203 202 202 202 201 200 200 199 199 199 199 199 199 199 199 200 200 200 200 200 199 199 199 199 199 199 199 199 199 200 201 201 202 203 203 203 204 204 204 204 204 204 204 204 204 204 204 204 204 204 204 204 204
344 343 341 339 336 331 326 320 312 302 290 275 261 247 236 228 222 217 213 211 209 207 206 205 205 204 204 204 203 203 202 202 202 202 202 202 202 201 200 200 199 199 198 198 199 199 199 199 199 200 200 200 199 199 199 199 199 199 199 199 199 199 200 200 201 202 202 203 203 204 204 204 204 204 204 204 204 204 204 204 204 204 204 204 204 204
344 343 342 340 337 333 329 323 315 305 292 277 263 248 237 228 221 216 212 210 208 207 206 205 204 204 203 203 202 202 202 202 202 202 202 202 202 201 201 200 199 199 198 198 198 199 199 199 199 199 199 199 199 199 199 199 199 199 199 199 199 199 199 200 201 201 202 203 203 203 204 204 204 204 204 204 204 204 204 204 204 204 204 204 204 204
344 344 342 341 338 335 331 325 318 308 296 280 264 249 237 228 221 215 211 208 207 206 205 205 204 203 203 202 201 201 201 201 202 202 202 202 202 201 201 200 199 199 198 198 198 198 198 199 199 199 199 199 199 199 199 199 199 199 199 199 199 199 199 200 200 201 202 202 203 203 203 204 204 204 204 204 204 204 204 204 204 204 204 204 204 204
345 344 343 342 340 337 333 328 321 312 299 283 266 251 238 229 221 215 211 208 206 205 204 204 204 203 202 202 201 200 201 201 201 202 202 202 201 201 201 200 199 199 199 198 198 198 198 198 199 199 199 199 199 199 199 199 199 199 199 199 199 199 199 200 200 201 202 202 203 203 203 204 204 204 204 204 204 204 204 204 204 204 203 204 204 204
346 345 344 343 341 338 335 331 324 315 302 286 269 252 239 229 221 215 211 207 204 203 203 203 203 203 202 202 201 200 200 201 201 201 201 201 201 201 201 200 200 199 199 198 198 198 198 198 198 199 199 199 199 199 199 199 199 199 199 199 199 199 199 199 200 201 201 202 202 203 203 203 203 204 204 204 204 204 204 203 203 203 203 203 203 204
347 346 345 344 342 340 337 333 328 319 306 290 270 254 240 230 222 216 210 206 203 201 200 200 201 202 202 201 201 201 200 201 201 201 201 201 201 201 201 200 200 199 199 198 198 198 198 198 198 198 198 199 199 199 199 199 199 199 199 199 199 199 199 199 200 200 201 202 202 203 203 203 203 203 204 204 204 204 203 203 203 203 203 203 203 203
348 347 346 345 343 342 339 335 330 323 311 293 274 255 240 229 222 216 211 207 203 200 198 197 198 198 200 200 201 201 201 201 201 202 202 202 201 201 201 201 200 200 199 199 198 198 198 198 198 198 198 198 199 199 199 199 199 199 199 199 198 199 199 199 200 200 201 201 202 202 203 203 203 203 203 203 203 203 203 203 203 203 203 203 203 203
348 348 347 346 344 343 341 338 334 326 315 298 277 255 239 229 222 216 212 207 204 200 197 195 194 194 196 197 198 200 201 202 202 202 203 202 202 202 201 201 200 200 199 199 198 198 198 198 197 198 198 198 198 199 199 199 199 199 199 198 198 198 199 199 199 200 200 201 202 202 202 203 203 203 203 203 203 203 203 203 203 203 203 203 203 203
349 348 347 346 345 344 343 340 337 331 320 303 279 256 238 227 220 215 211 208 204 201 198 195 193 192 192 193 194 196 198 200 201 202 203 203 203 203 202 201 201 200 200 199 199 198 198 198 197 197 198 198 198 198 199 199 199 199 198 198 198 198 198 199 199 200 200 201 201 202 202 202 203 203 203 203 203 203 203 203 203 203 203 203 203 203
349 348 348 347 346 345 344 342 339 334 324 309 285 259 239 226 218 213 210 207 205 202 200 197 195 193 192 191 192 193 194 196 198 200 201 202 203 203 203 202 201 201 200 200 199 199 198 198 197 197 197 198 198 198 198 198 198 198 198 198 198 198 198 199 199 199 200 201 201 202 202 202 203 203 203 203 203 203 203 203 203 202 202 202 202 203
349 349 348 348 347 346 345 344 342 338 329 316 293 265 242 226 218 212 208 206 204 202 200 198 196 195 194 193 192 192 193 194 195 197 198 200 201 202 202 202 202 201 201 200 200 199 198 198 198 197 197 197 198 198 198 198 198 198 198 198 198 198 198 198 199 199 200 200 201 201 202 202 202 203 203 203 203 203 203 203 202 202 202 202 202 202
Height
9979 9977 9975 9972 9971 9969 9968 9967 9967 9966 9966 9967 9967 9968 9968 9970 9972 9973 9976 9978 9980 9983 9987 9990 9995 10000 10005 10010 10017 10022 10027 10032 10038 10043 10050 10057 10065 10073 10082 10090 10098 10108 10117 10127 10138 10150 10161 10173 10185 10198 10210 10222 10233 10245 10257 10272 10288 10302 10315 10327 10338 10350 10363 10376 10388 10401 10413 10425 10437 10450 10462 10474 10486 10497 10508 10520 10530 10542 10553 10565 10577 10587 10595 10604 10613 10622
9976 9974 9972 9970 9968 9967 9965 9965 9964 9963 9963 9963 9964 9965 9966 9967 9968 9970 9973 9975 9977 9980 9983 9987 9991 9995 10000 10006 10012 10017 10023 10028 10034 10039 10045 10052 10060 10068 10076 10084 10093 10102 10112 10122 10133 10144 10155 10167 10178 10190 10202 10213 10225 10237 10250 10265 10280 10294 10307 10318 10330 10343 10356 10369 10382 10394 10407 10418 10430 10443 10455 10467 10479 10491 10502 10513 10525 10537 10548 10559 10570 10580 10589 10598 10607 10617
9973 9971 9969 9967 9965 9964 9963 9962 9961 9961 9960 9961 9961 9962 9963 9964 9965 9967 9970 9972 9974 9977 9980 9983 9987 9991 9996 10001 10007 10013 10018 10025 10030 10035 10041 10047 10055 10062 10070 10078 10087 10097 10106 10117 10127 10138 10149 10160 10171 10182 10193 10205 10217 10230 10243 10258 10273 10287 10298 10309 10322 10336 10350 10362 10375 10387 10400 10412 10423 10436 10448 10460 10472 10484 10497 10508 10520 10531 10542 10553 10563 10573 10583 10592 10602 10611
9970 9968 9966 9964 9963 9962 9960 9959 9958 9958 9958 9958 9958 9959 9960 9961 9963 9965 9967 9968 9971 9974 9977 9980 9983 9987 9992 9997 10002 10008 10014 10020 10026 10032 10037 10043 10050 10057 10065 10073 10082 10091 10100 10110 10121 10132 10142 10153 10164 10175 10186 10198 10210 10223 10238 10252 10265 10278 10288 10301 10315 10328 10342 10355 10367 10380 10392 10403 10416 10428 10442 10454 10466 10478 10490 10502 10513 10525 10536 10547 10557 10567 10576 10585 10595 10604
9968 9966 9963 9962 9960 9959 9958 9957 9956 9956 9955 9956 9956 9957 9957 9958 9960 9962 9963 9965 9968 9971 9974 9977 9980 9984 9988 9993 9998 10003 10010 10016 10022 10028 10033 10040 10047 10053 10060 10068 10077 10085 10095 10105 10115 10125 10136 10147 10157 10168 10179 10191 10203 10217 10232 10245 10257 10268 10280 10293 10307 10320 10333 10345 10358 10370 10382 10395 10407 10420 10434 10447 10458 10471 10483 10495 10507 10518 10529 10540 10550 10559 10568 10578 10587 10597
9966 9963 9962 9959 9957 9956 9955 9954 9953 9953 9953 9953 9953 9954 9955 9956 9957 9959 9960 9963 9965 9968 9971 9974 9978 9982 9985 9990 9995 10000 10006 10012 10018 10024 10030 10036 10042 10049 10056 10063 10072 10080 10090 10099 10109 10119 10129 10140 10150 10162 10173 10185 10198 10212 10226 10238 10250 10261 10273 10287 10300 10312 10325 10337 10349 10361 10373 10385 10398 10412 10425 10438 10450 10463 10475 10487 10498 10510 10521 10532 10542 10552 10560 10570 10580 10590
9964 9962 9959 9957 9955 9953 9953 9952 9951 9951 9950 9951 9951 9952 9952 9953 9954 9956 9958 9960 9962 9965 9968 9972 9975 9979 9983 9987 9992 9997 10002 10008 10013 10020 10026 10032 10038 10045 10052 10059 10067 10075 10085 10094 10103 10113 10123 10134 10145 10156 10168 10182 10195 10209 10222 10233 10245 10256 10268 10281 10293 10306 10318 10330 10342 10353 10365 10378 10391 10404 10417 10430 10442 10454 10467 10478 10490 10502 10513 10524 10534 10543 10552 10562 10572 10582
9962 9960 9957 9955 9953 9952 9950 9950 9949 9948 9948 9948 9948 9949 9950 9950 9952 9953 9955 9957 9960 9962 9965 9968 9972 9976 9980 9984 9988 9993 9998 10003 10010 10016 10022 10028 10034 10040 10047 10055 10063 10071 10080 10089 10098 10108 10118 10129 10140 10153 10166 10180 10194 10207 10219 10230 10240 10252 10264 10277 10288 10301 10313 10325 10336 10348 10360 10372 10385 10398 10410 10423 10435 10447 10458 10470 10482 10493 10505 10515 10525 10534 10543 10554 10564 10573
9959 9957 9955 9953 9951 9950 9948 9947 9947 9946 9946 9946 9946 9947 9947 9948 9949 9950 9953 9955 9957 9960 9962 9965 9969 9973 9977 9981 9985 9990 9995 10000 10005 10012 10018 10024 10030 10037 10043 10050 10058 10067 10075 10084 10094 10104 10115 10126 10138 10151 10165 10178 10192 10205 10216 10226 10236 10247 10259 10271 10283 10296 10308 10320 10332 10343 10355 10367 10380 10392 10405 10417 10428 10440 10452 10463 10474 10485 10497 10507 10517 10526 10535 10545 10556 10566
9957 9955 9953 9951 9949 9947 9946 9945 9944 9943 9943 9943 9944 9944 9945 9945 9947 9948 9950 9952 9954 9957 9960 9963 9966 9970 9974 9978 9982 9987 9992 9997 10002 10008 10014 10020 10027 10033 10040 10047 10054 10062 10071 10080 10090 10101 10112 10123 10135 10148 10162 10175 10188 10199 10210 10220 10231 10242 10254 10266 10278 10291 10303 10316 10328 10340 10352 10363 10375 10388 10400 10411 10422 10433 10445 10456 10467 10478 10488 10499 10508 10518 10527 10537 10548 10558
9954 9952 9950 9948 9947 9945 9944 9943 9942 9942 9942 9942 9942 9942 9942 9943 9944 9946 9947 9950 9952 9954 9957 9960 9963 9967 9971 9975 9979 9983 9988 9993 9998 10004 10010 10017 10023 10030 10037 10043 10051 10059 10068 10077 10087 10098 10108 10120 10132 10143 10156 10168 10181 10192 10203 10214 10225 10237 10248 10261 10273 10286 10298 10311 10323 10335 10347 10359 10371 10383 10394 10405 10416 10427 10438 10449 10460 10470 10481 10491 10500 10510 10519 10529 10540 10550
9952 9950 9948 9947 9945 9943 9942 9941 9940 9940 9939 9939 9940 9940 9940 9941 9942 9943 9945 9947 9949 9952 9954 9957 9960 9964 9968 9972 9976 9980 9985 9990 9995 10000 10007 10013 10020 10026 10033 10040 10048 10056 10065 10074 10084 10094 10105 10115 10126 10137 10148 10161 10173 10186 10197 10208 10219 10230 10243 10255 10267 10280 10292 10305 10318 10330 10342 10353 10365 10377 10388 10399 10410 10420 10431 10442 10453 10463 10473 10483 10493 10502 10511 10522 10532 10542
9951 9948 9946 9944 9943 9942 9940 9938 9938 9937 9937 9937 9937 9937 9938 9938 9940 9941 9943 9945 9947 9949 9952 9955 9958 9962 9965 9969 9973 9977 9982 9987 9992 9997 10003 10009 10016 10023 10030 10037 10045 10052 10061 10070 10080 10090 10100 10110 10120 10131 10142 10155 10167 10180 10192 10202 10213 10224 10236 10248 10260 10273 10285 10298 10310 10322 10334 10346 10358 10370 10381 10392 10403 10413 10424 10435 10445 10456 10466 10476 10485 10494 10504 10514 10524 10534
9950 9947 9945 9943 9941 9939 9938 9937 9936 9935 9935 9935 9935 9935 9936 9937 9938 9939 9940 9942 9944 9947 9949 9952 9955 9958 9962 9966 9970 9974 9978 9983 9988 9994 10000 10006 10012 10019 10027 10034 10041 10049 10057 10066 10075 10084 10093 10103 10114 10125 10137 10148 10161 10173 10186 10197 10208 10219 10230 10242 10253 10265 10278 10290 10302 10314 10326 10338 10350 10362 10373 10385 10395 10406 10417 10427 10438 10448 10458 10468 10478 10487 10497 10507 10517 10527
9949 9946 9943 9941 9938 9937 9936 9935 9934 9933 9933 9933 9933 9933 9934 9935 9935 9937 9938 9940 9942 9944 9947 9950 9953 9957 9960 9963 9967 9972 9976 9980 9985 9991 9997 10002 10009 10016 10023 10031 10038 10046 10053 10062 10070 10079 10088 10098 10108 10119 10130 10143 10155 10168 10180 10192 10203 10214 10225 10236 10247 10259 10270 10283 10295 10306 10318 10330 10342 10353 10365 10377 10388 10399 10410 10420 10430 10441 10451 10461 10470 10480 10490 10501 10511 10520
9946 9943 9941 9938 9937 9935 9934 9933 9932 9932 9931 9931 9931 9932 9932 9932 9933 9935 9936 9938 9940 9942 9945 9948 9951 9954 9957 9961 9965 9969 9973 9977 9982 9987 9993 9999 10006 10013 10020 10027 10035 10042 10050 10058 10066 10074 10083 10093 10103 10113 10125 10137 10149 10162 10174 10186 10197 10208 10219 10230 10242 10253 10264 10276 10288 10299 10310 10322 10333 10345 10357 10368 10380 10391 10402 10413 10423 10433 10443 10453 10463 10474 10484 10495 10505 10514
9943 9941 9938 9937 9935 9933 9932 9931 9930 9930 9929 9929 9929 9929 9930 9930 9932 9933 9934 9936 9938 9940 9943 9945 9948 9952 9955 9958 9963 9967 9970 9975 9980 9985 9990 9996 10003 10009 10017 10023 10031 10038 10046 10054 10062 10070 10079 10088 10098 10108 10118 10130 10143 10155 10167 10179 10191 10202 10213 10224 10235 10247 10258 10270 10282 10293 10304 10315 10326 10337 10348 10360 10372 10383 10395 10406 10416 10427 10437 10447 10457 10467 10478 10488 10498 10508
9942 9939 9937 9935 9933 9932 9930 9929 9928 9928 9927 9927 9927 9927 9928 9928 9930 9931 9932 9934 9936 9938 9941 9944 9947 9950 9953 9957 9960 9964 9968 9972 9977 9982 9987 9993 9999 10006 10013 10020 10027 10034 10042 10050 10058 10066 10075 10083 10093 10103 10113 10125 10137 10148 10161 10173 10185 10195 10207 10217 10228 10240 10251 10263 10275 10287 10298 10308 10319 10330 10341 10353 10364 10376 10387 10398 10409 10420 10430 10440 10450 10461 10471 10481 10491 10501
9940 9937 9935 9933 9932 9930 9928 9927 9927 9926 9925 9925 9925 9926 9926 9927 9928 9929 9931 9932 9934 9937 9939 9942 9945 9948 9951 9955 9958 9962 9966 9970 9975 9980 9985 9990 9997 10003 10009 10016 10023 10030 10038 10046 10053 10062 10070 10079 10088 10098 10108 10119 10131 10143 10155 10167 10179 10190 10200 10211 10222 10233 10245 10257 10269 10280 10292 10302 10313 10324 10335 10347 10358 10369 10381 10392 10403 10413 10423 10433 10444 10454 10465 10475 10485 10494
9938 9935 9933 9932 9930 9928 9927 9926 9925 9925 9924 9923 9923 9924 9925 9925 9926 9928 9929 9930 9932 9935 9937 9940 9943 9946 9949 9952 9956 9960 9963 9968 9972 9977 9982 9987 9993 9999 10005 10012 10019 10026 10034 10042 10050 10058 10066 10075 10083 10093 10103 10114 10126 10138 10150 10162 10173 10185 10195 10206 10217 10227 10239 10251 10262 10274 10285 10297 10308 10318 10330 10342 10353 10364 10375 10386 10397 10407 10417 10427 10438 10448 10458 10468 10478 10488
9936 9933 9932 9930 9928 9927 9925 9925 9923 9923 9922 9922 9922 9922 9923 9923 9925 9926 9927 9929 9931 9933 9935 9938 9940 9943 9947 9950 9953 9957 9961 9965 9970 9974 9979 9985 9990 9996 10002 10008 10015 10022 10030 10037 10045 10054 10062 10070 10080 10089 10098 10109 10121 10133 10145 10157 10168 10179 10190 10200 10211 10222 10233 10245 10257 10268 10280 10290 10302 10313 10325 10337 10348 10360 10370 10381 10392 10402 10412 10422 10432 10442 10452 10462 10472 10482
9934 9932 9930 9928 9927 9926 9924 9923 9922 9922 9921 9920 9920 9921 9921 9922 9923 9924 9925 9927 9928 9931 9933 9935 9938 9941 9943 9947 9950 9955 9959 9963 9967 9972 9977 9982 9987 9993 9998 10005 10012 10018 10026 10034 10042 10050 10058 10067 10075 10084 10094 10105 10116 10127 10139 10151 10163 10173 10184 10195 10205 10216 10227 10238 10250 10262 10273 10285 10296 10307 10319 10331 10343 10355 10366 10377 10387 10396 10406 10415 10425 10436 10446 10457 10467 10477
9933 9930 9928 9927 9925 9924 9923 9922 9920 9920 9919 9919 9919 9919 9920 9920 9922 9922 9923 9925 9927 9928 9931 9933 9935 9938 9942 9945 9948 9952 9957 9961 9965 9970 9975 9980 9984 9990 9995 10002 10008 10015 10023 10031 10039 10047 10055 10063 10071 10080 10089 10100 10110 10122 10133 10145 10157 10168 10178 10189 10199 10210 10221 10232 10243 10255 10267 10278 10290 10301 10313 10325 10337 10349 10361 10372 10382 10391 10400 10410 10420 10430 10440 10451 10461 10470
9932 9930 9928 9926 9924 9923 9922 9920 9919 9918 9918 9918 9918 9918 9919 9920 9920 9921 9922 9923 9925 9927 9929 9932 9934 9937 9940 9943 9947 9950 9954 9958 9963 9968 9973 9977 9982 9988 9993 9999 10005 10012 10020 10028 10035 10043 10051 10058 10067 10075 10085 10095 10105 10117 10128 10140 10151 10162 10173 10183 10193 10204 10215 10226 10237 10248 10260 10272 10283 10295 10307 10318 10331 10343 10354 10365 10375 10385 10395 10404 10414 10424 10434 10445 10455 10465
9931 9928 9926 9924 9923 9922 9921 9920 9918 9918 9918 9918 9918 9918 9918 9918 9918 9920 9921 9922 9923 9925 9927 9930 9932 9935 9938 9941 9945 9948 9952 9957 9962 9966 9970 9975 9980 9986 9991 9997 10003 10010 10017 10025 10032 10039 10047 10054 10062 10070 10080 10090 10100 10111 10122 10134 10145 10157 10167 10178 10188 10198 10208 10219 10230 10242 10253 10265 10277 10288 10300 10312 10324 10336 10347 10358 10368 10378 10388 10398 10407 10418 10428 10438 10449 10458
9929 9927 9925 9923 9922 9921 9920 9918 9918 9917 9917 9916 9915 9915 9915 9916 9917 9918 9919 9920 9922 9923 9925 9928 9930 9933 9936 9939 9943 9947 9950 9955 9959 9964 9968 9973 9978 9983 9988 9995 10001 10008 10015 10022 10028 10035 10042 10050 10058 10066 10075 10085 10095 10106 10117 10128 10140 10151 10162 10172 10182 10192 10202 10213 10224 10235 10247 10258 10270 10282 10293 10306 10318 10329 10340 10351 10362 10372 10381 10391 10401 10411 10422 10432 10443 10453
9928 9926 9924 9922 9921 9920 9918 9917 9916 9915 9914 9914 9914 9914 9914 9915 9915 9917 9917 9918 9920 9922 9923 9926 9928 9931 9934 9937 9941 9945 9948 9953 9957 9962 9967 9972 9976 9981 9987 9992 9998 10005 10012 10018 10025 10032 10038 10046 10054 10062 10071 10080 10090 10101 10112 10123 10135 10145 10156 10167 10177 10187 10197 10207 10218 10230 10242 10253 10265 10276 10288 10300 10312 10323 10334 10345 10355 10365 10374 10384 10394 10405 10415 10427 10437 10447
9927 9925 9922 9921 9920 9918 9917 9916 9915 9914 9913 9913 9913 9913 9913 9913 9914 9915 9916 9917 9919 9920 9922 9924 9927 9929 9932 9935 9939 9943 9947 9951 9955 9960 9965 9969 9974 9979 9984 9990 9997 10003 10009 10015 10022 10028 10035 10043 10051 10059 10068 10077 10087 10097 10108 10118 10130 10140 10151 10161 10172 10182 10192 10203 10214 10225 10237 10248 10260 10271 10283 10294 10306 10317 10328 10338 10348 10358 10367 10377 10387 10398 10409 10420 10431 10441
9925 9923 9922 9920 9918 9917 9915 9915 9913 9913 9912 9912 9912 9912 9912 9912 9913 9914 9915 9917 9918 9920 9921 9923 9925 9927 9930 9934 9938 9942 9945 9950 9953 9958 9963 9967 9972 9977 9982 9988 9994 10000 10007 10013 10019 10026 10033 10040 10048 10057 10065 10074 10083 10093 10103 10114 10125 10135 10146 10157 10168 10178 10188 10200 10210 10222 10233 10244 10255 10267 10278 10289 10300 10312 10322 10332 10342 10352 10361 10370 10381 10392 10403 10414 10425 10436
9924 9922 9920 9918 9917 9915 9914 9913 9912 9912 9911 9911 9911 9910 9911 9911 9912 9913 9914 9915 9917 9918 9920 9922 9923 9926 9929 9933 9936 9940 9944 9948 9952 9957 9960 9965 9970 9975 9980 9986 9992 9998 10004 10010 10017 10023 10030 10038 10046 10054 10062 10071 10080 10089 10099 10110 10120 10131 10142 10153 10163 10174 10184 10195 10205 10217 10227 10239 10250 10262 10273 10284 10295 10306 10317 10327 10336 10345 10355 10365 10375 10386 10397 10409 10420 10430
9923 9921 9919 9917 9916 9915 9913 9912 9911 9910 9910 9910 9910 9910 9910 9910 9911 9912 9913 9914 9915 9917 9918 9920 9922 9925 9928 9932 9935 9938 9942 9946 9950 9955 9958 9963 9968 9973 9978 9983 9989 9995 10002 10008 10014 10020 10027 10035 10043 10051 10059 10068 10076 10085 10095 10105 10116 10127 10137 10148 10158 10168 10178 10188 10199 10210 10221 10232 10243 10255 10267 10278 10289 10300 10310 10320 10330 10340 10349 10359 10370 10381 10392 10403 10415 10425
9922 9920 9918 9917 9915 9913 9912 9911 9910 9910 9909 9908 9908 9908 9908 9909 9910 9910 9912 9913 9914 9915 9917 9919 9921 9924 9927 9930 9934 9937 9941 9945 9949 9953 9957 9961 9965 9970 9975 9981 9987 9993 9999 10005 10011 10018 10025 10032 10040 10048 10056 10064 10072 10081 10090 10101 10111 10122 10133 10143 10153 10163 10173 10183 10193 10203 10215 10226 10237 10248 10260 10271 10282 10293 10304 10314 10324 10333 10343 10354 10365 10376 10388 10399 10410 10420
9922 9920 9918 9916 9914 9913 9912 9910 9909 9908 9908 9908 9907 9907 9908 9908 9909 9910 9911 9912 9913 9915 9916 9918 9920 9923 9926 9929 9933 9936 9940 9943 9947 9952 9955 9959 9963 9968 9973 9978 9985 9990 9997 10002 10009 10016 10023 10030 10037 10044 10052 10060 10068 10077 10087 10097 10107 10117 10128 10138 10148 10157 10167 10177 10188 10198 10209 10220 10231 10242 10253 10265 10275 10287 10297 10307 10318 10328 10338 10348 10360 10372 10383 10394 10405 10415
9922 9920 9917 9915 9913 9912 9910 9909 9908 9908 9907 9907 9907 9907 9907 9907 9908 9908 9910 9911 9912 9913 9915 9917 9920 9922 9925 9928 9931 9935 9938 9942 9946 9950 9953 9957 9961 9965 9970 9976 9982 9988 9993 10000 10006 10013 10020 10028 10035 10042 10049 10057 10065 10073 10083 10093 10102 10113 10123 10133 10142 10152 10162 10172 10183 10193 10203 10215 10225 10237 10248 10258 10269 10280 10291 10301 10312 10322 10333 10344 10355 10367 10378 10390 10400 10410
9922 9919 9917 9915 9913 9911 9910 9908 9908 9907 9907 9906 9906 9906 9906 9907 9907 9908 9908 9910 9911 9913 9914 9917 9918 9921 9923 9927 9930 9933 9937 9940 9944 9948 9952 9955 9959 9963 9969 9974 9979 9985 9991 9997 10003 10010 10017 10025 10032 10039 10047 10054 10062 10071 10080 10088 10098 10108 10118 10128 10137 10147 10157 10167 10177 10188 10198 10209 10220 10231 10242 10253 10264 10275 10285 10296 10306 10317 10328 10339 10351 10363 10374 10385 10395 10405
9921 9918 9916 9913 9912 9910 9909 9908 9907 9906 9906 9905 9905 9905 9905 9906 9906 9907 9908 9909 9910 9912 9913 9915 9918 9920 9923 9925 9928 9931 9935 9938 9943 9947 9950 9954 9958 9963 9967 9972 9978 9983 9989 9995 10001 10008 10014 10022 10028 10036 10043 10051 10059 10068 10076 10085 10095 10104 10114 10123 10133 10142 10152 10162 10172 10182 10193 10203 10215 10226 10237 10248 10258 10270 10280 10291 10301 10312 10323 10335 10346 10358 10369 10380 10391 10400
9920 9917 9915 9913 9912 9910 9908 9907 9907 9905 9905 9905 9905 9905 9905 9905 9905 9906 9907 9908 9909 9911 9912 9914 9917 9919 9922 9924 9927 9930 9933 9937 9941 9945 9949 9953 9957 9962 9967 9971 9977 9982 9987 9993 9999 10005 10012 10019 10026 10033 10040 10048 10055 10063 10072 10082 10091 10101 10110 10120 10129 10138 10148 10158 10167 10177 10188 10198 10210 10220 10232 10242 10253 10264 10275 10285 10296 10307 10318 10330 10341 10353 10364 10375 10385 10395
9919 9917 9915 9912 9911 9909 9908 9907 9906 9905 9904 9904 9904 9904 9904 9904 9905 9905 9906 9907 9908 9910 9912 9913 9915 9918 9920 9923 9925 9928 9932 9936 9940 9944 9948 9952 9957 9961 9965 9970 9975 9980 9985 9991 9997 10003 10010 10017 10023 10030 10037 10045 10052 10060 10068 10077 10087 10097 10106 10115 10125 10134 10144 10153 10163 10173 10183 10193 10204 10215 10226 10237 10248 10259 10270 10280 10292 10302 10313 10325 10336 10347 10358 10369 10379 10388
9918 9916 9914 9912 9910 9908 9907 9906 9905 9905 9904 9903 9903 9903 9903 9903 9904 9905 9905 9907 9907 9909 9910 9912 9914 9917 9918 9922 9924 9927 9931 9935 9938 9943 9947 9951 9955 9959 9964 9968 9973 9978 9983 9990 9995 10002 10008 10014 10020 10027 10033 10041 10049 10057 10066 10074 10083 10091 10100 10110 10120 10130 10139 10149 10159 10169 10179 10189 10199 10210 10221 10232 10243 10254 10265 10276 10287 10298 10310 10321 10332 10343 10353 10364 10373 10383
9918 9915 9913 9912 9910 9908 9907 9905 9905 9904 9903 9903 9903 9903 9903 9903 9903 9904 9905 9906 9907 9908 9910 9912 9913 9915 9918 9920 9923 9927 9930 9934 9938 9942 9945 9950 9953 9958 9962 9967 9972 9977 9982 9987 9993 9999 10005 10011 10017 10024 10031 10038 10047 10055 10063 10071 10078 10087 10095 10105 10115 10125 10135 10144 10154 10164 10174 10184 10195 10205 10217 10228 10239 10250 10260 10272 10283 10294 10305 10316 10327 10338 10348 10359 10369 10378
9917 9915 9913 9911 9909 9908 9907 9905 9904 9903 9903 9903 9902 9902 9902 9902 9903 9903 9904 9905 9906 9907 9909 9911 9912 9915 9917 9920 9923 9926 9930 9933 9937 9940 9944 9948 9952 9957 9961 9965 9970 9975 9980 9985 9990 9997 10002 10008 10015 10022 10029 10037 10044 10052 10059 10067 10075 10083 10093 10102 10112 10121 10130 10140 10150 10159 10169 10179 10190 10200 10212 10223 10233 10245 10256 10267 10277 10288 10298 10309 10320 10332 10343 10353 10363 10373
9917 9915 9913 9911 9909 9907 9906 9905 9904 9903 9903 9902 9902 9902 9902 9902 9902 9903 9903 9905 9906 9907 9908 9910 9912 9913 9916 9919 9922 9925 9929 9932 9935 9939 9943 9947 9951 9955 9960 9964 9968 9973 9978 9983 9988 9994 10000 10006 10012 10019 10026 10033 10041 10048 10055 10063 10071 10080 10090 10098 10107 10115 10125 10135 10145 10155 10165 10175 10185 10195 10206 10217 10228 10239 10250 10261 10272 10282 10293 10304 10316 10328 10338 10349 10358 10368
9917 9914 9912 9910 9908 9907 9906 9905 9903 9903 9902 9902 9902 9902 9902 9902 9902 9903 9903 9904 9905 9907 9908 9910 9912 9913 9915 9918 9921 9924 9928 9931 9935 9938 9942 9945 9949 9953 9958 9963 9967 9972 9977 9981 9986 9992 9997 10003 10010 10016 10023 10030 10037 10045 10052 10060 10068 10077 10086 10094 10103 10112 10122 10132 10141 10150 10160 10170 10180 10191 10202 10212 10223 10233 10245 10256 10267 10278 10290 10302 10313 10324 10335 10345 10355 10365
9917 9914 9912 9910 9908 9907 9905 9904 9903 9902 9902 9902 9901 9901 9901 9902 9902 9902 9903 9903 9905 9906 9908 9909 9911 9913 9915 9918 9920 9923 9927 9930 9933 9937 9940 9944 9948 9952 9957 9961 9965 9970 9975 9979 9984 9989 9995 10001 10007 10013 10020 10028 10035 10042 10049 10057 10066 10074 10082 10090 10099 10109 10119 10128 10137 10146 10156 10166 10175 10186 10197 10208 10218 10229 10240 10251 10262 10273 10285 10297 10308 10319 10330 10340 10350 10360
9916 9914 9912 9910 9908 9907 9905 9904 9903 9902 9902 9902 9901 9901 9901 9901 9902 9902 9902 9903 9904 9905 9907 9909 9911 9913 9915 9918 9920 9923 9926 9929 9932 9935 9939 9943 9947 9951 9955 9959 9963 9968 9972 9977 9982 9987 9993 9998 10004 10011 10018 10025 10032 10039 10047 10054 10062 10070 10078 10087 10097 10106 10115 10123 10132 10142 10152 10161 10171 10181 10192 10202 10213 10225 10236 10248 10259 10270 10281 10292 10302 10313 10324 10335 10345 10355
9916 9914 9912 9910 9908 9907 9905 9904 9903 9902 9902 9901 9901 9901 9901 9901 9902 9902 9902 9903 9903 9905 9907 9908 9910 9913 9915 9918 9920 9923 9926 9928 9932 9935 9938 9942 9945 9949 9953 9958 9962 9966 9970 9975 9980 9985 9991 9996 10002 10009 10016 10023 10029 10036 10043 10051 10058 10067 10075 10083 10093 10102 10110 10118 10128 10137 10147 10157 10167 10177 10187 10198 10209 10221 10233 10244 10255 10266 10276 10287 10297 10308 10319 10330 10342 10352
9916 9914 9912 9910 9908 9907 9905 9904 9903 9902 9902 9901 9901 9901 9901 9901 9901 9902 9902 9903 9903 9904 9906 9907 9910 9912 9915 9918 9921 9923 9926 9929 9932 9935 9938 9941 9945 9948 9952 9957 9960 9965 9969 9973 9978 9983 9988 9995 10001 10007 10013 10020 10026 10033 10040 10048 10055 10063 10072 10080 10089 10098 10106 10116 10125 10135 10143 10152 10162 10172 10182 10194 10206 10218 10228 10238 10249 10260 10271 10282 10293 10304 10316 10327 10337 10347
9916 9914 9912 9910 9908 9907 9905 9904 9903 9902 9902 9901 9901 9900 9900 9901 9901 9902 9902 9903 9903 9904 9905 9907 9908 9911 9914 9917 9920 9923 9927 9930 9932 9935 9938 9941 9945 9948 9952 9955 9960 9963 9968 9973 9977 9982 9987 9993 9998 10005 10010 10017 10023 10030 10037 10045 10052 10060 10068 10077 10085 10093 10103 10112 10122 10132 10140 10148 10158 10167 10178 10190 10202 10212 10222 10232 10243 10255 10267 10278 10290 10302 10312 10322 10332 10342
9916 9914 9912 9910 9908 9907 9905 9904 9903 9902 9902 9901 9901 9900 9900 9901 9901 9902 9902 9903 9903 9904 9905 9906 9907 9909 9912 9915 9918 9921 9925 9928 9932 9935 9938 9942 9945 9948 9952 9955 9959 9963 9967 9972 9976 9981 9986 9991 9997 10002 10008 10013 10020 10027 10033 10041 10048 10056 10065 10073 10082 10090 10098 10108 10117 10125 10135 10144 10154 10164 10175 10185 10195 10205 10215 10227 10240 10252 10264 10275 10287 10298 10309 10319 10329 10339
9917 9914 9912 9910 9908 9907 9906 9905 9903 9903 9902 9902 9901 9900 9900 9900 9901 9901 9902 9903 9903 9904 9905 9907 9907 9909 9910 9913 9915 9918 9921 9924 9928 9932 9936 9940 9944 9948 9951 9955 9958 9963 9967 9971 9975 9980 9985 9990 9995 10000 10005 10012 10017 10024 10031 10038 10045 10053 10062 10070 10078 10087 10095 10104 10113 10122 10130 10140 10150 10160 10171 10181 10190 10200 10211 10224 10237 10248 10260 10272 10283 10293 10305 10315 10326 10336
9917 9915 9913 9911 9909 9907 9906 9905 9904 9903 9902 9902 9901 9901 9901 9900 9901 9901 9902 9902 9903 9904 9905 9907 9908 9910 9911 9913 9914 9917 9919 9922 9924 9928 9932 9936 9940 9945 9949 9953 9957 9962 9966 9970 9975 9979 9983 9988 9993 9998 10003 10009 10015 10021 10028 10035 10043 10050 10058 10067 10075 10083 10092 10100 10110 10118 10127 10137 10146 10156 10167 10177 10187 10198 10210 10222 10233 10244 10255 10267 10278 10289 10300 10312 10322 10333